This is the latest recevied weather packets stored in our database for station/object N2UFM. If no packets are shown the sender has not sent any weather packets the latest 10 day(s).
| Time | Temp. | Humidity | Pressure | Rain* | Wind** | Luminosity | Snow |
|---|---|---|---|---|---|---|---|
| 1787431997 | 25° C | 76% | 1016.2 hPa | 0 mm | - | - | - |
| 1787431697 | 25° C | 77% | 1016.2 hPa | 0 mm | - | - | - |
| 1787431397 | 25° C | 76% | 1016.2 hPa | 0 mm | - | - | - |
| 1787431097 | 25° C | 77% | 1016.3 hPa | 0 mm | - | - | - |
| 1787430797 | 25° C | 77% | 1016.3 hPa | 0 mm | - | - | - |
| 1787430496 | 25° C | 76% | 1016.3 hPa | 0 mm | - | - | - |
| 1787430196 | 25.56° C | 75% | 1016.3 hPa | 0 mm | - | - | - |
| 1787429896 | 25.56° C | 74% | 1016.3 hPa | 0 mm | - | - | - |
| 1787429596 | 25.56° C | 73% | 1016.4 hPa | 0 mm | - | - | - |
| 1787429296 | 25.56° C | 73% | 1016.5 hPa | 0 mm | - | - | - |
| 1787428996 | 25.56° C | 74% | 1016.4 hPa | 0 mm | - | - | - |
| 1787428695 | 25° C | 75% | 1016.4 hPa | 0 mm | - | - | - |
| 1787428395 | 25.56° C | 74% | 1016.5 hPa | 0 mm | - | - | - |
| 1787428095 | 25.56° C | 75% | 1016.4 hPa | 0 mm | - | - | - |
| 1787427795 | 25° C | 75% | 1016.4 hPa | 0 mm | - | - | - |
| 1787427495 | 25.56° C | 72% | 1016.5 hPa | 0 mm | - | - | - |
| 1787427195 | 25° C | 75% | 1016.4 hPa | 0 mm | - | - | - |
| 1787426895 | 25° C | 73% | 1016.6 hPa | 0 mm | - | - | - |
| 1787426594 | 25.56° C | 74% | 1016.6 hPa | 0 mm | - | - | - |
| 1787426294 | 25.56° C | 72% | 1016.7 hPa | 0 mm | - | - | - |
| 1787425994 | 26.11° C | 70% | 1016.8 hPa | 0 mm | - | - | - |
| 1787425694 | 26.11° C | 72% | 1017 hPa | 0 mm | - | - | - |
| 1787425394 | 26.11° C | 70% | 1017.1 hPa | 0 mm | - | - | - |
| 1787425094 | 26.11° C | 70% | 1017.3 hPa | 0 mm | - | - | - |
| 1787424793 | 26.11° C | 70% | 1017.3 hPa | 0 mm | - | - | - |
* Rain latest hour (hover to see other rain measurements)
** Current wind speed in m/s (hover to see current wind gust speed)